Regional Weather Roundup
Issued by NWS Sioux Falls, SD

Home | Current Version | Previous Version | Graphics & Text | Print | Product List | Glossary Off
Versions: 1 2 3 4 5 6 7 8 9 10 11 12 13 14 15 16 17 18 19 20 21 22 23 24 25 26 27 28 29 30 31 32 33 34 35 36 37 38 39 40 41 42 43 44 45 46 47 48 49 50

000
ASUS43 KFSD 050710
RWRFSD

WEATHER ROUNDUP FOR SE SOUTH DAKOTA/SW MINNESOTA/NW IOWA
NATIONAL WEATHER SERVICE SIOUX FALLS SD
200 AM CDT WED AUG 05 2015

NOTE: "FAIR" INDICATES FEW OR NO CLOUDS BELOW 12,000 FEET WITH NO
SIGNIFICANT WEATHER AND OR OBSTRUCTIONS TO VISIBILITY.


SDZ038>040-050-052>070-050800-
SOUTHEAST SOUTH DAKOTA

CITY           SKY/WX    TMP DP  RH WIND       PRES   REMARKS
BROOKINGS      MOCLDY    63  55  77 SE7       30.06S
CHAMBERLAIN    CLOUDY    65  63  94 SE7       29.99F
HURON          MOCLDY   N/A N/A N/A SE7       30.01S
MADISON        FAIR      59  59 100 E6        30.05S
MITCHELL       MOCLDY    64  62  93 E6        30.01S
SIOUX FALLS    MOCLDY    67  58  72 E8        30.03S
WINNER         FAIR      67  64  90 SE6       30.00S
YANKTON        CLOUDY    66  63  88 E3        29.98S
$$

MNZ071-072-080-081-089-090-097-098-050800-
SOUTHWEST MINNESOTA

CITY           SKY/WX    TMP DP  RH WIND       PRES   REMARKS
FAIRMONT       MOCLDY    57  50  77 CALM      30.05S
JACKSON        MOCLDY    59  54  82 CALM      30.07S
LUVERNE        MOCLDY    63  57  82 CALM      30.05S
MARSHALL       MOCLDY    57  52  82 SW3       30.05S
MONTEVIDEO     PTCLDY    55  52  88 CALM      30.05S
PIPESTONE      MOCLDY    61  55  82 E5        30.06S
REDWOOD FALLS  MOCLDY    61  54  77 CALM      30.03F
TRACY          MOCLDY    64  55  72 SW6       30.05R
WINDOM         MOCLDY    57  54  88 CALM      30.06R
WORTHINGTON    MOCLDY    61  54  77 E3        30.06F
$$

IAZ001>003-012>014-020>022-031-032-NEZ013-014-SDZ071-050800-
NORTHWEST IOWA

CITY           SKY/WX    TMP DP  RH WIND       PRES   REMARKS
CHEROKEE       MOCLDY    64  62  94 E5        30.03S
DENISON        CLOUDY    68  64  88 NE8       29.99S
ESTHERVILLE    MOCLDY    55  53  93 CALM      30.06R
LE MARS        MOCLDY    68  64  88 CALM      30.03S
ORANGE CITY    MOCLDY    63  59  88 E8        30.03F
SHELDON        MOCLDY    61  59  94 E5        30.04R
SIOUX CITY     CLOUDY    68  62  81 E5        30.01R
SPENCER        MOCLDY    59  55  87 NE5       30.05S
STORM LAKE     MOCLDY    63  61  94 E5        30.04S
$$

ABBREVIATIONS USED IN REMARKS
   TC - TEMPERATURE IN CELSIUS
  WCI - WIND CHILL INDEX
   HX - HEAT INDEX
  VSB - VISIBILITY




USA.gov is the U.S. government's official web portal to all federal, state and local government web resources and services.